Theta_e
324 324 324 324 324 324 324 323 323 323 322 322 321 322 323 322 322 321 321 321 320 321 321 321 321 321 322 322 323 323 322 322 323 323 323 325 346 355 355 361 360 364 366 358 349 347 346 348 348 351 350 348 347 342 348 348 349 343 330 328 323 324 323 329 329 331 336 333 336 339 341 339 332 340 343 350 343 342 339 341 345 348 348 350 351 355 356 354
323 323 323 324 324 323 323 323 323 323 322 322 322 322 322 322 321 321 321 320 320 320 321 321 321 321 322 322 323 324 322 323 322 322 320 337 347 359 359 360 362 366 365 350 344 344 342 344 348 349 348 342 349 341 349 341 348 334 329 330 322 326 328 337 336 337 335 334 339 339 341 339 336 339 343 337 335 339 336 340 342 343 348 350 354 356 355 350
324 323 323 324 324 324 323 323 323 322 322 322 322 322 322 321 321 321 320 320 320 320 321 321 321 322 322 323 323 323 322 323 326 323 324 352 355 355 359 359 361 366 352 345 347 346 343 343 348 346 345 340 342 338 345 339 345 339 332 324 325 333 332 337 341 337 340 341 338 337 340 338 341 341 344 335 334 336 334 332 339 340 342 346 349 355 352 351
324 323 323 323 323 323 323 323 322 322 322 322 322 322 322 321 320 320 321 320 321 320 321 321 321 321 322 322 324 324 323 324 319 319 332 350 353 360 359 358 363 363 350 346 350 346 346 345 346 344 341 338 340 342 338 342 336 338 332 326 328 335 333 335 340 342 342 343 340 340 342 338 341 344 344 337 332 332 335 338 338 340 343 345 348 351 352 347
323 323 323 323 323 323 323 323 322 321 321 322 322 322 321 321 320 320 321 321 320 321 321 321 321 322 322 323 322 324 322 312 322 330 335 352 355 359 361 360 365 348 347 347 350 345 344 341 341 341 341 337 339 339 337 341 342 338 334 333 335 337 333 339 340 345 342 344 341 339 337 338 343 342 340 340 331 331 337 343 344 346 347 345 345 348 349 347
323 323 323 323 323 323 323 322 321 321 322 321 321 321 321 320 320 320 320 320 320 320 321 321 321 322 322 322 322 322 317 303 325 328 349 352 360 359 362 363 365 348 346 345 347 341 340 339 339 336 336 337 335 331 336 337 341 330 334 335 338 337 335 341 341 344 342 340 337 336 341 342 341 339 341 340 337 338 343 346 348 349 348 349 348 349 347 347
323 323 323 323 323 322 322 321 321 321 321 321 321 321 321 320 320 320 320 319 320 320 320 321 321 322 322 322 323 322 319 318 325 331 352 356 359 362 364 364 364 351 343 343 345 339 338 336 337 335 338 335 335 334 336 336 341 337 331 336 337 341 337 341 341 342 338 339 339 343 345 340 339 332 341 338 343 346 349 349 351 351 351 349 347 347 346 346
323 323 323 323 322 322 321 321 321 321 321 321 321 321 321 321 320 319 319 319 319 320 320 321 322 322 322 321 322 321 320 316 333 339 348 356 356 358 361 344 348 345 343 343 344 336 337 334 333 337 336 332 334 333 337 336 338 332 331 337 337 338 340 339 337 337 341 342 344 344 340 338 341 340 338 338 343 347 349 352 351 351 350 348 347 346 345 344
322 322 322 322 321 321 321 321 321 320 321 321 320 321 320 320 320 319 319 319 319 320 320 321 321 321 321 320 319 318 318 333 338 334 345 334 336 341 339 335 341 339 341 345 345 339 337 333 335 336 330 334 337 334 338 333 328 333 333 336 336 336 339 338 339 340 341 343 345 340 338 341 343 345 338 341 345 349 349 351 352 351 348 346 345 345 344 344
322 322 321 321 321 321 321 321 320 320 320 320 320 320 320 319 320 319 319 319 320 320 320 321 321 321 320 320 322 314 325 333 338 337 330 332 335 335 336 336 335 335 338 343 343 337 334 334 334 337 336 335 337 334 337 334 331 337 335 338 335 335 336 338 337 339 342 343 344 339 336 339 344 341 329 341 346 348 347 347 350 349 346 346 345 347 345 346
322 322 321 321 320 320 320 320 320 320 320 320 320 320 319 319 319 319 319 319 319 320 321 321 322 321 319 325 320 315 324 326 337 330 327 332 333 331 332 335 333 331 337 341 339 337 337 336 337 337 336 333 337 335 334 335 340 335 337 334 335 336 337 336 338 340 342 340 345 341 336 339 341 341 332 340 346 347 345 345 346 347 347 347 347 349 350 349
321 321 321 321 320 320 320 320 320 320 319 319 319 319 319 319 319 318 319 319 320 320 321 321 321 321 323 321 320 321 325 326 335 328 329 332 332 331 334 337 333 330 337 338 336 337 338 337 335 332 326 340 330 336 334 338 335 333 334 327 330 333 331 335 335 337 340 338 345 342 336 333 336 335 340 342 346 345 344 344 344 345 347 346 348 348 346 347
321 321 321 320 320 319 320 320 320 319 319 318 318 318 318 318 318 318 319 319 320 321 321 322 322 324 323 317 321 328 328 330 337 329 328 334 333 332 334 339 334 333 339 338 335 337 338 337 335 330 334 333 332 327 336 336 333 332 331 328 327 328 325 334 339 340 337 337 345 340 318 325 334 338 341 342 343 343 342 341 342 343 345 346 346 343 345 347
321 321 320 320 320 320 320 320 319 319 318 318 318 318 317 317 317 318 318 318 320 320 320 320 322 324 323 321 325 325 328 329 338 329 328 331 332 329 334 339 336 336 341 339 337 338 336 338 335 334 337 332 329 340 333 331 332 323 329 329 321 319 320 330 334 337 334 344 345 341 321 324 332 337 343 344 343 342 337 340 341 343 344 344 345 345 345 348
320 320 320 319 319 320 320 319 319 319 318 317 317 317 317 317 317 317 318 319 319 320 321 322 322 323 321 323 329 326 345 338 333 328 331 329 330 329 332 339 336 336 339 340 338 341 337 336 334 330 327 334 334 330 326 326 327 328 321 318 322 318 319 328 337 336 330 343 346 337 323 324 331 337 343 345 342 340 338 340 341 342 343 342 343 345 344 345
320 320 319 319 319 319 319 318 318 318 317 317 317 317 317 318 318 318 318 319 321 322 324 322 325 324 323 321 325 334 323 322 326 331 333 333 331 330 336 339 338 336 338 340 342 340 339 336 329 329 329 331 327 324 322 321 321 326 320 317 316 318 319 322 330 333 336 334 341 335 322 328 330 339 343 345 343 340 338 338 340 342 343 343 344 345 344 345
320 319 318 318 319 319 318 318 318 317 317 317 316 318 320 321 319 317 318 319 321 322 323 326 330 327 314 322 325 323 319 321 332 330 331 335 334 336 337 335 333 333 335 335 335 332 331 330 331 328 328 323 324 323 317 315 315 318 322 316 319 316 320 315 327 333 333 331 327 336 328 327 331 338 341 343 343 340 335 338 339 340 340 342 344 344 344 345
319 318 318 317 318 318 318 318 318 317 317 317 317 318 318 320 319 317 319 320 323 326 325 328 327 323 317 324 315 320 326 328 328 329 330 335 339 339 335 332 330 329 324 321 325 322 325 321 324 318 321 322 322 320 313 310 317 315 319 319 316 319 318 317 318 327 329 329 325 330 330 329 332 337 340 341 342 338 335 336 339 338 339 342 342 343 344 344
318 318 317 317 317 318 318 318 317 317 316 316 318 320 320 319 320 322 324 324 322 316 316 316 319 312 306 316 320 323 333 331 331 330 329 337 339 339 334 330 326 323 316 316 319 320 322 320 321 317 314 316 318 320 318 318 321 318 319 318 319 315 317 320 322 327 329 322 320 328 323 329 331 334 336 340 341 337 337 338 338 338 339 343 342 342 342 343
318 317 317 316 317 318 318 317 317 316 315 316 323 322 322 318 317 321 323 325 319 321 322 320 321 317 317 319 324 336 340 335 332 331 337 336 335 331 326 324 321 321 316 311 317 319 323 314 312 312 314 317 321 322 321 322 322 322 323 321 316 318 320 322 322 324 328 322 320 322 324 326 329 333 337 339 339 338 336 336 335 335 337 341 340 341 342 343
317 316 316 315 316 317 317 316 316 316 315 317 318 320 320 316 313 314 318 320 323 323 321 319 320 319 316 322 329 329 323 325 331 330 334 334 332 326 320 320 316 312 313 315 315 321 320 312 312 315 318 319 321 322 323 322 323 322 320 317 315 318 315 320 321 325 327 321 319 326 327 329 332 335 337 339 339 335 336 337 337 338 337 340 340 340 341 343
317 316 316 315 316 317 317 316 315 316 315 317 318 319 324 321 322 324 320 313 317 321 322 320 321 318 321 322 325 327 324 319 321 327 331 328 327 317 319 316 314 309 313 313 314 314 312 310 313 316 319 320 321 321 322 320 320 322 319 317 317 318 320 321 323 326 326 323 322 322 324 327 331 335 336 337 337 337 338 339 339 338 338 340 338 339 341 342
316 317 316 316 316 316 316 316 315 314 316 318 317 318 320 325 328 329 324 318 316 319 318 318 316 318 318 321 322 327 318 315 316 322 325 323 324 318 318 313 312 312 312 312 308 310 308 312 314 317 317 317 317 319 320 319 321 319 318 316 314 318 315 312 318 321 323 322 320 322 319 327 333 336 336 338 338 339 340 341 341 342 339 339 340 341 340 341
316 316 316 316 316 315 315 315 313 316 317 318 319 319 326 328 328 327 321 314 313 314 317 319 318 318 317 314 322 323 319 317 319 316 326 321 319 319 318 314 312 312 309 311 310 309 310 314 319 319 316 315 314 317 316 315 315 319 318 317 316 316 318 316 316 319 320 325 323 323 322 325 329 329 331 337 340 340 340 340 341 342 343 344 342 342 344 341
316 316 316 316 315 315 314 312 314 320 325 321 319 324 326 328 328 328 318 316 316 312 319 319 319 319 320 326 323 318 320 321 320 323 324 322 321 317 316 321 315 310 311 312 311 310 310 316 318 317 317 316 316 314 315 316 314 317 320 319 318 320 317 318 318 317 315 316 322 319 311 314 324 327 329 333 336 336 339 337 337 339 340 342 343 341 343 345
316 316 315 315 314 314 312 313 321 324 323 321 324 328 328 328 330 328 319 311 304 309 314 309 320 313 325 316 319 318 320 314 322 324 324 322 328 320 319 317 317 310 312 312 312 313 312 316 317 316 315 315 316 315 318 319 315 314 317 320 320 320 318 317 316 316 311 310 323 321 312 309 322 323 328 331 333 334 337 335 336 338 338 339 341 341 341 342
315 315 315 315 314 313 315 323 326 326 321 323 326 329 329 329 335 327 314 308 303 309 307 316 314 314 320 318 316 318 304 310 323 325 323 324 320 326 315 314 316 315 316 316 312 308 315 314 314 316 315 316 316 314 318 318 316 313 322 321 320 318 317 317 316 314 313 319 320 321 318 313 313 321 329 332 330 332 333 334 335 336 338 339 341 341 343 342
314 314 314 314 313 312 314 317 319 322 324 326 329 328 329 331 331 326 312 300 297 313 309 312 316 322 319 317 317 312 314 320 313 319 325 324 323 321 317 314 313 313 315 313 304 313 313 311 312 312 314 314 314 318 321 322 317 317 322 322 318 319 318 317 315 314 315 314 312 316 320 312 312 320 330 330 325 328 329 332 334 335 337 340 339 342 342 341
314 313 313 313 312 312 313 314 319 321 329 329 329 328 328 332 325 315 308 297 307 312 323 310 324 318 318 317 313 314 316 319 310 320 325 324 324 321 312 314 314 314 316 314 307 311 314 313 313 313 311 310 316 320 321 322 318 322 323 323 321 320 318 317 314 314 315 313 309 313 317 309 309 320 322 327 325 326 329 332 334 336 336 338 339 340 342 343
313 312 312 312 312 315 314 316 316 324 329 330 329 329 327 324 318 308 303 295 312 304 313 315 314 311 317 310 310 313 313 313 317 321 322 318 319 320 318 320 315 313 312 316 313 312 314 320 321 318 312 313 316 321 322 322 323 325 322 319 317 317 316 317 316 315 312 307 309 313 314 312 306 315 322 321 322 325 328 331 333 336 337 339 340 341 342 342
312 311 311 311 312 323 324 317 323 326 326 328 329 326 324 319 309 305 297 303 312 309 314 311 310 315 312 308 305 312 313 314 315 317 314 317 314 315 315 312 317 314 314 312 311 313 314 314 314 317 321 321 321 319 324 325 324 322 318 316 314 312 315 313 313 315 307 306 312 316 314 315 305 315 321 328 328 328 329 329 331 333 335 337 339 341 343 344
311 311 311 312 316 319 317 323 328 329 328 328 325 321 318 307 309 301 298 312 301 306 308 307 311 310 311 311 309 309 308 313 315 313 311 310 310 308 308 305 310 304 305 307 306 312 310 311 315 317 323 319 317 315 318 321 322 319 316 314 308 306 307 304 308 303 305 303 311 314 316 312 311 314 321 322 324 328 330 332 332 334 336 337 339 341 342 345
310 310 311 313 314 316 320 326 331 334 331 326 322 319 311 307 299 308 304 306 302 310 307 313 310 310 310 309 308 309 312 309 314 312 313 312 309 309 311 309 314 310 301 307 306 306 307 312 313 314 316 321 317 310 311 311 317 316 314 312 307 302 301 300 304 307 307 309 313 312 315 310 314 318 323 322 325 327 329 334 336 336 337 338 339 341 342 343
309 310 315 321 320 321 325 331 334 331 327 325 320 315 311 305 303 314 306 308 306 312 312 311 311 311 310 306 309 310 306 312 312 311 312 309 307 306 308 310 311 311 309 308 305 306 301 302 308 311 308 316 316 314 314 315 316 315 318 314 310 308 305 299 301 300 303 305 308 314 309 307 307 314 324 326 330 331 333 334 337 338 339 340 341 341 342 343
309 312 319 324 324 326 326 327 330 331 326 322 316 312 306 305 309 305 305 307 310 312 309 313 309 308 308 310 313 312 311 309 313 311 309 308 305 306 308 308 310 311 311 305 308 308 306 305 312 316 315 316 314 318 319 317 316 318 318 319 312 309 313 303 307 306 305 305 305 312 309 313 315 323 327 329 330 329 331 334 337 337 339 339 338 339 341 342
312 330 329 327 328 330 329 327 329 328 324 318 313 310 307 309 305 310 307 313 311 309 309 310 310 307 307 308 311 310 314 311 312 311 309 308 310 307 310 312 310 311 309 305 310 305 307 304 314 316 317 316 316 319 318 319 307 318 315 309 312 318 314 310 310 311 310 307 305 312 309 315 320 323 325 327 327 328 330 331 335 336 337 338 338 340 341 342
324 331 327 331 330 334 330 328 328 326 322 315 310 307 312 312 314 314 315 312 312 312 308 303 304 306 304 304 307 308 310 311 311 310 306 310 307 311 310 311 315 313 313 312 309 313 305 306 314 313 311 317 320 321 322 322 320 316 309 313 318 320 316 310 302 305 304 302 303 310 307 310 309 308 321 322 326 327 329 330 335 337 336 335 338 339 340 342
322 328 330 332 334 334 330 329 327 324 318 314 309 314 318 311 314 315 315 314 313 312 308 307 306 308 306 305 305 307 310 306 308 308 307 309 304 314 312 312 315 314 315 317 310 311 313 304 310 314 314 317 319 317 315 320 323 315 313 321 311 307 306 312 307 299 299 300 302 306 308 310 313 314 316 318 322 325 329 332 333 334 336 335 337 339 344 346
324 324 324 331 331 330 330 330 325 320 316 310 310 310 315 313 314 315 315 317 315 312 308 309 305 308 309 306 308 309 309 303 308 306 304 307 303 312 311 314 312 315 317 317 311 311 314 304 307 314 312 314 316 314 305 311 318 320 320 315 319 313 308 305 307 307 306 300 301 302 306 306 312 313 318 319 323 325 329 331 331 334 335 336 337 339 342 344
324 321 323 329 330 330 331 328 320 316 313 309 312 312 316 313 314 316 317 316 312 311 310 309 310 307 307 307 309 306 309 308 307 307 306 308 306 313 310 315 312 314 316 317 313 314 308 313 301 309 314 313 307 312 308 310 309 311 310 309 312 312 315 312 310 307 304 302 302 302 301 306 315 319 319 324 324 327 329 330 332 334 336 336 337 338 340 342
328 323 321 330 330 331 328 322 314 311 312 316 317 314 314 314 315 316 316 317 316 316 313 312 309 307 307 306 306 310 307 307 308 307 307 308 308 304 312 314 313 312 315 315 313 313 308 309 304 308 307 306 308 314 313 312 313 312 311 309 310 308 306 303 302 311 309 305 303 302 301 309 315 321 323 323 324 326 330 331 331 333 335 335 336 338 339 340
320 317 320 329 329 329 322 314 315 317 314 313 312 315 314 325 316 314 315 316 316 315 316 314 312 311 308 308 310 308 309 305 307 307 308 306 308 309 313 316 313 316 313 310 310 315 313 311 308 304 307 308 311 313 316 315 315 315 314 311 312 311 309 305 297 304 308 309 310 309 304 308 322 321 325 325 327 328 329 333 332 331 334 334 335 337 340 340
320 318 327 329 329 326 319 313 317 318 315 317 319 316 316 314 315 315 315 315 314 315 314 313 313 311 312 312 312 309 308 306 307 306 308 308 309 313 314 316 315 316 315 313 313 315 322 308 306 307 311 312 314 316 317 316 315 312 313 314 312 309 310 308 307 309 306 307 306 306 303 308 317 323 324 324 326 328 330 330 333 332 334 336 338 343 345 342
323 322 323 329 330 326 316 309 312 313 313 317 315 317 316 316 316 313 315 314 314 313 313 313 313 314 312 314 312 309 310 305 308 307 308 310 308 314 314 315 315 314 312 312 310 315 308 311 307 304 304 306 308 311 312 315 314 311 310 313 313 313 312 312 310 311 304 306 307 304 300 307 316 322 323 323 325 326 328 329 331 330 333 335 338 339 341 344
320 323 324 325 329 324 312 315 315 315 314 313 313 312 313 313 316 317 317 315 316 316 314 313 314 316 315 315 314 314 312 311 309 310 309 310 311 315 314 313 315 314 316 319 335 318 310 310 307 300 298 296 296 298 301 304 308 311 312 312 313 312 310 309 305 309 301 310 308 305 306 313 317 322 320 323 326 328 329 329 331 333 335 338 338 341 343 343
317 313 317 321 322 320 318 320 318 316 315 315 312 314 314 312 315 316 316 316 316 316 316 316 316 316 313 313 312 312 310 313 311 308 309 309 312 314 316 314 314 314 329 326 322 318 311 312 310 307 304 303 306 308 311 312 310 306 309 310 310 312 312 311 309 306 305 309 308 313 310 311 313 316 318 321 324 324 326 330 332 333 336 339 342 343 337 338
321 316 317 313 319 317 315 317 315 318 314 317 311 314 311 312 314 314 316 312 316 315 316 315 314 311 312 311 311 311 313 311 314 312 309 311 313 315 315 317 316 317 332 320 323 314 312 307 310 309 309 309 309 310 312 312 308 309 309 309 310 310 311 309 306 305 316 306 303 313 317 310 312 314 317 321 324 325 326 329 332 335 337 337 339 340 339 337
316 321 322 323 316 312 311 312 316 316 317 317 314 316 313 312 312 311 313 315 316 317 311 314 313 314 314 312 313 310 311 312 311 313 312 313 314 315 313 314 315 325 321 316 318 313 309 305 309 309 308 310 310 310 311 311 310 309 310 310 310 310 310 308 308 309 310 307 305 314 316 312 315 315 318 323 325 325 325 327 333 336 335 337 337 337 338 335
323 322 321 325 316 319 318 319 319 317 316 317 315 316 314 313 312 314 314 314 313 314 314 309 312 314 315 315 313 310 313 309 308 314 312 312 312 314 312 313 315 318 318 316 316 319 313 307 309 310 309 310 310 309 311 310 310 310 310 311 311 310 310 310 310 311 311 310 312 313 316 313 315 317 318 324 326 327 327 328 333 333 332 332 332 334 335 338
318 316 316 321 320 318 318 318 319 317 314 318 313 315 315 313 311 315 316 314 311 313 316 311 312 315 315 315 315 312 315 314 313 312 318 314 313 316 313 314 313 317 316 314 316 318 311 308 313 310 308 308 310 311 310 310 309 308 310 311 311 311 311 311 311 311 312 311 312 312 313 314 318 321 319 322 329 328 330 327 327 329 330 331 331 331 334 337
322 324 324 317 313 316 319 316 315 315 312 314 312 314 315 314 314 316 316 317 314 314 316 314 315 316 316 316 315 315 316 316 316 316 317 316 311 318 313 315 316 313 315 314 313 316 313 309 313 311 305 305 309 309 309 310 310 309 308 310 310 309 308 309 309 311 310 310 311 312 312 312 318 322 322 325 327 328 329 329 328 326 327 329 331 331 332 334
324 326 327 321 313 320 316 317 316 313 310 314 314 315 314 314 316 317 314 318 318 318 317 317 317 315 314 314 314 316 318 317 317 318 319 319 319 318 318 318 317 316 314 313 318 313 314 310 308 307 303 304 308 309 308 309 308 305 305 308 310 312 312 312 313 314 313 314 309 310 311 318 320 322 320 322 324 328 328 329 331 333 331 330 330 331 333 335
Wind_Speed
15 16 15 15 15 15 15 15 15 15 17 17 16 15 15 14 14 14 14 14 14 14 15 15 16 16 16 17 17 16 16 13 14 11 13 14 5 8 10 12 17 16 13 9 10 10 9 11 9 3 6 2 1 3 3 5 4 2 2 4 3 3 3 6 5 7 7 3 8 7 4 2 7 7 3 6 8 9 11 7 4 4 2 1 4 6 7 10
16 15 16 16 16 16 16 16 15 16 17 16 16 16 15 15 14 13 14 14 14 15 15 14 15 16 17 17 16 16 15 12 13 14 18 7 13 10 10 15 14 14 12 11 12 11 7 5 6 4 4 3 2 5 2 1 0 3 4 5 5 4 5 2 4 7 7 8 6 3 3 3 5 7 4 6 4 8 10 6 8 5 4 1 5 7 8 12
16 16 16 16 16 16 16 16 16 16 16 16 16 16 15 15 15 14 14 14 14 14 15 15 15 16 16 16 16 15 14 13 12 17 18 12 13 14 13 14 15 13 14 12 12 10 7 5 6 4 3 3 3 4 3 1 3 4 3 4 6 4 7 1 5 5 6 7 7 6 4 4 1 2 9 8 11 8 7 7 6 10 9 9 9 8 7 6
16 16 16 17 16 16 16 16 16 15 16 16 15 15 15 15 15 15 14 14 14 14 15 15 15 15 16 16 14 14 11 12 10 2 2 21 16 15 15 14 14 14 15 14 10 11 7 6 5 7 3 4 4 6 6 1 2 3 4 3 6 9 7 4 8 6 7 6 6 5 3 5 3 4 6 11 10 7 7 10 10 12 14 12 12 11 9 9
16 16 17 16 17 17 17 17 17 17 17 16 15 15 15 14 14 14 14 14 14 14 15 14 15 16 15 16 17 11 10 8 7 8 7 9 14 16 14 14 14 15 16 13 13 10 7 6 6 5 3 5 3 4 7 6 4 6 7 7 8 10 8 7 7 6 6 6 5 4 5 2 3 3 3 8 7 6 8 10 10 12 14 16 17 15 13 15
16 16 17 17 17 17 16 16 17 17 17 16 16 15 15 15 14 13 13 13 14 15 14 14 15 15 16 14 13 10 6 1 3 6 9 12 11 14 13 12 14 16 15 15 16 9 7 7 7 4 5 4 6 4 5 5 3 6 6 6 7 8 9 7 9 6 6 5 5 5 3 1 2 1 1 2 3 8 10 9 8 11 13 13 14 14 12 13
17 17 17 17 17 16 16 16 17 17 17 16 16 16 15 15 14 14 14 15 14 15 15 14 14 15 15 16 13 8 8 10 3 6 12 8 10 13 12 12 14 14 15 14 16 11 10 10 7 6 2 5 9 9 10 9 7 9 8 9 10 11 9 9 9 8 7 8 6 5 2 3 1 0 2 5 7 11 9 11 10 11 11 13 14 14 14 14
18 17 17 17 17 17 18 18 19 17 16 16 15 15 15 14 15 15 15 15 15 14 14 13 13 14 13 11 6 7 8 7 9 9 11 11 10 11 12 12 14 14 14 15 15 9 8 8 8 4 5 5 4 8 6 8 9 8 8 6 9 9 7 8 8 8 6 5 4 3 4 2 3 3 1 7 8 10 10 10 11 11 11 13 13 15 15 17
17 17 17 17 17 18 19 18 18 17 16 14 14 14 14 14 15 15 15 14 14 13 13 13 12 12 9 8 7 8 6 6 8 13 14 15 13 13 14 11 13 13 12 12 17 11 7 7 10 6 5 5 8 10 8 8 7 4 7 9 9 11 9 9 8 8 6 3 3 5 5 0 3 4 8 9 7 10 11 9 11 11 11 12 13 15 14 13
17 17 18 18 18 19 19 19 19 18 16 13 13 13 13 14 14 15 14 14 13 12 12 12 12 10 11 6 7 7 4 1 12 10 14 16 15 15 16 12 15 14 12 12 14 11 10 4 4 3 8 9 8 9 9 10 9 9 10 9 11 11 11 8 9 7 5 5 2 5 5 2 3 3 5 1 7 11 11 11 11 13 14 13 12 11 12 12
17 17 17 17 18 19 19 19 19 18 16 14 14 13 14 13 13 14 14 13 12 12 12 11 11 11 8 7 7 5 3 4 7 10 13 15 16 15 15 13 14 13 14 12 14 11 11 7 6 4 7 4 4 6 8 7 9 13 12 12 12 11 10 9 8 8 5 4 1 4 5 2 1 3 9 9 9 11 12 12 13 14 14 12 10 5 4 2
16 18 18 16 17 18 19 19 19 18 18 15 15 14 14 14 14 14 14 14 13 12 12 11 10 7 8 9 8 6 3 4 4 9 11 13 13 14 15 12 13 14 12 13 10 10 10 12 7 3 6 2 4 7 8 9 10 11 12 12 11 11 10 9 8 7 4 4 4 2 5 4 4 2 13 13 8 9 13 13 13 13 13 13 9 5 5 5
18 18 17 16 17 19 19 19 18 18 18 16 16 15 15 16 16 15 14 13 12 12 11 10 9 6 8 8 11 8 2 2 4 11 9 9 10 11 11 12 12 13 13 12 10 9 8 11 10 6 6 8 9 7 7 15 13 12 10 9 12 9 10 7 6 8 8 3 5 1 4 1 3 3 12 17 7 10 13 12 12 10 11 11 10 9 7 8
18 18 17 17 18 19 20 19 19 18 18 16 17 17 17 16 15 15 13 13 13 13 12 10 7 7 7 9 4 3 3 3 4 8 10 10 11 12 12 12 11 11 10 12 13 5 9 7 10 10 7 10 8 6 11 10 10 10 8 6 7 8 8 4 4 5 8 4 7 2 2 1 4 8 11 14 12 11 12 10 10 11 10 9 11 8 9 9
18 18 17 16 20 20 20 19 19 19 17 15 16 17 16 15 13 13 12 12 13 11 11 9 7 6 7 6 4 5 5 7 7 9 10 13 12 11 13 11 11 11 10 9 9 14 8 7 8 9 9 8 11 11 9 9 8 5 7 5 6 8 7 8 5 6 9 4 6 5 3 3 5 9 12 11 13 9 11 11 12 12 10 11 10 10 10 9
19 17 16 17 19 21 19 18 16 16 17 16 15 16 15 14 11 11 12 12 12 11 8 7 8 9 9 10 4 5 8 10 10 11 10 12 12 11 11 9 9 10 7 7 8 7 4 5 10 8 10 11 12 8 9 8 6 0 3 7 7 8 9 12 7 10 12 7 9 7 3 5 3 9 12 11 11 13 10 12 12 12 10 10 8 7 8 9
17 16 16 17 18 20 19 16 16 17 18 16 16 14 13 12 10 9 9 10 9 8 6 5 3 10 5 5 3 7 8 11 10 11 11 12 12 9 9 9 8 9 6 9 8 6 6 8 7 10 11 10 9 9 7 8 8 1 2 4 6 9 6 8 8 9 11 13 8 10 6 5 7 11 10 10 13 11 11 11 12 10 6 7 8 9 10 9
17 16 17 17 17 20 19 18 17 19 17 19 15 13 10 5 6 7 8 8 7 6 8 10 9 7 13 12 9 10 10 9 10 10 12 11 10 9 9 8 8 8 7 9 9 10 8 8 7 9 8 10 9 7 8 6 6 2 1 4 7 11 11 12 11 5 12 13 13 9 6 7 11 11 11 9 12 11 13 12 11 9 8 10 12 10 10 10
19 19 17 18 18 19 20 19 18 16 18 19 21 11 10 8 6 7 5 5 5 4 5 7 7 3 9 13 7 7 9 9 7 11 12 12 10 9 9 8 7 9 8 9 7 12 8 9 8 9 10 9 9 9 9 9 6 8 8 8 10 9 4 6 10 9 13 5 7 10 4 10 11 9 9 10 11 11 11 10 5 7 8 11 12 11 9 11
19 19 17 17 18 19 20 17 15 15 16 14 7 5 4 4 4 3 7 8 11 10 13 8 14 3 5 6 7 10 10 9 8 11 10 10 9 11 11 9 9 10 10 9 8 12 7 9 9 10 10 11 11 11 12 11 12 10 9 8 12 11 5 13 8 14 7 4 5 6 4 4 11 8 9 10 9 9 9 15 13 12 10 9 11 12 13 13
18 18 17 17 17 19 17 15 14 15 13 9 10 7 4 8 6 4 5 8 13 16 14 7 15 5 2 9 10 9 10 11 9 11 11 9 10 10 10 10 10 10 10 12 11 9 9 11 11 13 14 13 11 11 10 11 10 9 8 10 10 10 7 8 14 8 5 3 7 1 11 14 10 10 8 9 11 12 12 12 12 13 14 11 13 15 14 13
20 19 18 17 17 18 18 15 14 15 14 8 7 7 8 7 5 5 7 6 15 14 9 9 2 4 4 1 9 7 8 10 13 12 10 12 11 11 11 11 10 10 10 12 12 9 9 11 12 14 13 12 11 9 9 10 11 9 8 9 10 5 8 17 17 6 6 4 3 1 5 11 12 11 10 9 8 8 11 11 12 13 14 12 13 14 14 13
23 20 19 17 17 18 18 16 13 13 8 7 7 11 11 6 5 6 6 9 9 12 11 7 6 7 8 2 5 11 11 11 11 12 13 14 12 14 11 10 10 10 11 13 11 9 10 11 15 12 12 13 14 12 8 9 10 9 9 9 7 8 12 6 5 8 7 6 5 3 1 9 11 10 8 6 7 8 11 10 11 12 11 13 14 12 13 13
23 22 19 19 19 19 18 15 17 12 9 12 11 13 11 10 8 8 8 6 4 13 11 10 9 8 7 7 8 11 11 9 10 14 13 13 11 10 11 10 11 11 11 13 14 12 12 8 3 10 11 12 15 17 14 4 8 9 11 9 8 6 11 12 9 10 13 3 3 3 0 7 4 6 6 6 7 7 8 10 10 10 10 10 11 13 12 13
22 23 21 21 20 20 17 16 7 8 9 10 14 13 10 9 6 5 7 6 7 7 10 9 7 9 8 1 10 11 11 8 10 11 12 13 13 10 10 7 9 11 13 14 14 13 16 18 10 7 8 11 10 10 8 10 9 8 9 8 7 17 13 13 13 13 7 4 3 3 5 3 7 6 6 7 6 7 9 11 11 12 10 11 12 12 12 11
21 21 21 19 19 20 15 6 7 8 9 9 8 11 9 6 5 6 6 5 6 7 9 9 7 8 6 9 8 10 8 10 11 11 12 13 12 10 6 9 7 11 13 14 11 8 11 13 12 8 8 10 12 10 10 8 9 9 3 7 12 13 11 12 15 12 7 8 6 5 2 3 3 5 7 7 6 8 9 11 13 13 12 11 12 10 12 12
19 21 20 21 19 15 8 1 9 13 9 8 7 3 1 1 3 6 5 5 6 9 9 8 10 5 7 11 10 10 10 8 9 13 14 13 14 7 11 8 10 10 11 8 8 8 8 12 14 7 3 8 9 10 9 9 8 7 4 13 13 13 14 14 14 11 8 8 6 6 3 1 3 4 8 9 9 10 10 12 12 13 15 13 10 11 12 13
21 21 20 20 16 6 7 11 13 8 5 8 6 1 4 2 2 4 5 5 6 9 9 8 3 5 7 11 12 13 8 11 10 14 12 13 14 10 11 10 8 8 9 6 8 5 10 10 13 12 6 7 8 8 7 8 9 7 9 9 15 15 14 15 12 10 9 9 3 3 4 1 4 1 7 9 9 10 12 12 14 14 16 14 13 11 14 15
21 19 20 18 16 16 10 7 8 9 8 7 5 4 1 1 7 4 5 2 7 5 3 8 2 7 6 12 13 12 4 10 6 15 13 12 15 8 10 12 12 14 12 12 12 10 9 10 10 16 10 8 8 10 10 10 9 8 13 12 11 13 15 15 13 12 9 7 7 4 3 2 4 6 7 10 9 11 12 14 15 15 16 16 15 14 14 11
18 16 15 15 14 6 5 8 11 13 10 8 7 4 5 6 5 6 5 3 7 7 9 6 10 10 11 12 11 12 8 9 5 12 12 11 14 14 13 12 10 9 10 8 15 16 14 5 14 8 8 12 11 8 9 11 12 12 13 13 13 14 13 12 10 8 8 8 5 9 3 4 3 8 10 11 9 11 11 11 12 15 15 16 15 15 13 12
19 16 13 10 7 4 3 6 13 15 11 8 7 8 6 5 6 6 4 9 9 9 8 9 9 11 13 13 10 11 11 9 7 10 10 10 12 13 9 9 8 9 8 10 12 15 13 12 10 8 10 11 9 10 8 8 10 10 8 10 11 10 9 9 4 8 7 6 9 8 9 5 5 4 9 11 9 10 13 14 16 19 18 16 15 14 14 12
20 17 13 8 10 9 6 1 9 2 5 6 7 8 6 6 9 7 2 5 7 9 10 9 12 11 13 12 10 12 11 9 9 10 10 9 9 11 11 10 9 9 9 8 10 9 12 11 9 8 8 12 11 10 9 9 10 10 10 10 10 8 7 7 5 3 1 6 10 12 10 3 5 6 14 6 8 7 12 13 17 18 20 18 15 13 14 13
22 19 19 15 12 9 13 14 10 4 5 4 6 6 7 5 5 11 5 7 4 10 8 10 12 13 12 13 11 12 12 9 12 10 11 11 10 12 13 14 10 10 8 10 10 8 10 13 13 11 9 11 10 10 8 9 7 9 9 7 7 6 5 5 5 4 4 6 11 10 2 5 4 6 6 7 8 7 7 13 15 18 20 20 17 12 11 12
24 21 11 5 10 11 9 9 6 7 7 5 6 6 7 7 5 8 3 5 9 7 11 10 12 12 12 10 12 9 10 9 11 8 11 9 10 10 12 15 16 13 12 10 9 8 10 11 12 12 10 9 11 11 10 8 5 7 6 7 7 6 3 7 4 3 7 7 7 1 2 2 2 3 1 12 17 14 14 12 13 15 17 16 16 16 13 12
28 22 11 8 9 11 14 12 8 6 6 6 6 7 7 8 9 2 6 5 5 7 8 11 10 11 9 10 9 9 9 8 8 9 10 10 9 9 10 12 16 15 11 10 5 7 11 9 5 15 11 11 12 11 11 11 10 9 9 6 8 7 3 8 6 9 9 9 6 8 5 3 5 2 6 11 11 11 10 12 14 16 15 15 15 13 12 12
20 4 8 7 8 9 12 9 9 8 6 6 6 6 6 6 4 4 8 7 3 7 11 9 9 10 7 5 8 7 9 3 8 9 9 11 10 10 10 9 14 16 10 9 1 7 5 7 6 5 2 10 11 9 12 9 7 3 6 7 6 3 9 8 8 10 12 6 4 4 3 5 6 5 8 7 7 8 11 14 14 16 16 15 14 13 10 10
7 6 6 8 10 9 10 10 7 6 6 6 7 6 6 4 3 7 6 8 3 11 7 9 8 9 8 6 5 7 10 7 7 7 5 6 10 12 10 10 9 17 15 7 6 5 6 6 9 7 12 8 2 4 8 10 9 9 7 5 6 6 9 7 8 7 6 6 5 7 8 6 8 5 4 5 8 6 9 12 15 15 18 15 11 12 11 10
9 7 10 9 8 10 10 9 8 7 6 7 8 11 11 8 6 7 3 5 5 5 7 9 9 11 5 7 8 7 11 8 8 7 6 7 6 4 12 10 13 11 15 9 9 5 6 8 9 13 11 7 11 9 11 12 13 12 7 5 11 3 5 1 6 7 7 6 2 3 4 4 5 4 1 4 7 7 9 13 14 16 16 15 15 13 10 9
7 6 7 8 10 9 9 9 8 6 7 7 8 10 7 2 1 5 2 8 7 5 8 7 6 5 6 9 8 11 11 8 8 9 7 7 9 9 12 8 7 6 9 9 10 8 5 7 5 7 8 7 9 9 8 9 11 13 11 11 9 8 6 6 1 8 6 7 6 1 5 4 4 4 4 7 8 9 12 13 14 17 17 17 16 15 13 9
6 5 4 12 10 9 9 9 6 7 7 9 7 6 6 1 7 1 3 9 5 7 5 8 3 3 7 8 15 6 9 9 7 5 4 8 6 11 10 9 10 12 9 11 11 9 8 6 9 5 8 9 10 6 7 7 9 11 10 9 8 8 5 8 7 9 6 8 7 7 5 4 7 8 7 9 3 5 13 13 13 15 16 17 18 16 15 14
7 8 4 9 11 10 9 7 7 8 9 9 13 11 5 6 3 7 5 3 8 1 6 10 2 8 3 2 1 2 9 7 8 6 4 9 7 6 9 11 8 9 9 9 11 8 8 6 7 8 6 5 6 7 8 11 9 7 7 9 8 7 7 7 7 8 7 6 5 5 4 3 4 5 8 8 5 4 11 15 14 16 18 16 15 18 16 14
6 6 6 10 12 12 7 7 7 9 8 9 5 4 6 1 7 4 5 3 8 4 4 10 2 6 7 8 6 6 4 5 6 9 5 5 7 3 9 7 8 8 8 7 9 8 8 3 8 9 6 8 8 5 13 10 11 9 6 8 6 8 9 10 4 3 5 4 8 6 6 2 2 7 7 8 7 8 7 13 12 12 17 16 15 14 14 13
7 4 10 14 13 11 7 8 8 8 9 4 3 8 5 7 8 5 7 6 3 9 3 3 6 12 9 7 7 1 6 4 7 7 10 8 11 10 6 7 4 5 2 6 6 9 8 7 6 7 8 9 14 13 11 3 10 10 9 9 11 9 7 8 7 5 5 5 6 4 4 1 5 8 7 9 9 9 5 9 12 10 12 13 11 8 8 10
8 6 6 9 10 9 7 7 5 7 6 4 5 3 6 7 6 4 5 7 7 6 3 3 5 5 4 4 2 9 3 7 8 12 2 6 9 6 8 2 8 6 8 4 5 6 6 4 7 5 4 6 9 8 8 3 6 7 6 6 9 9 8 8 8 6 6 5 8 5 6 3 4 8 8 7 8 8 7 5 9 11 12 14 12 11 8 10
9 9 3 8 8 8 9 8 8 6 11 6 6 7 7 6 5 7 7 3 1 4 2 2 7 4 2 0 2 8 3 4 3 7 10 8 9 5 11 6 5 8 7 10 11 5 6 3 6 8 7 7 6 7 7 7 8 6 8 12 13 13 16 13 9 3 4 3 5 8 4 3 5 9 9 9 10 8 6 8 7 11 12 12 11 10 5 6
4 6 6 6 8 8 9 10 10 10 7 9 4 8 6 5 11 5 8 3 5 4 4 5 7 7 2 4 1 3 1 0 9 3 6 2 6 3 7 2 3 8 12 6 7 6 4 6 9 7 9 9 7 8 10 12 8 10 10 13 15 18 9 7 8 8 5 4 4 6 4 7 9 8 7 11 9 5 8 11 11 11 12 11 11 10 10 6
7 6 4 5 8 7 9 9 10 10 7 6 6 4 8 8 3 6 8 8 8 7 5 1 2 3 4 7 0 2 3 3 4 2 2 3 1 4 3 6 5 6 10 6 5 5 6 7 9 9 10 12 13 12 8 8 11 7 9 13 12 6 9 14 9 5 6 5 5 3 7 6 6 7 4 11 10 6 9 10 11 11 11 11 11 7 5 8
6 5 6 6 7 4 8 10 10 9 13 5 6 5 8 8 2 6 10 8 5 7 10 9 10 2 4 4 5 3 4 4 2 3 4 7 2 5 5 7 7 10 2 7 6 7 7 8 8 10 12 14 14 12 11 9 8 12 14 9 7 6 5 6 8 11 8 5 3 3 6 7 2 8 12 10 7 4 8 12 12 13 13 11 10 10 8 9
7 7 8 10 8 5 6 9 11 9 10 4 7 6 6 8 9 5 2 2 5 5 7 6 2 2 5 2 3 4 4 4 2 8 3 4 4 6 3 5 4 5 7 7 6 5 5 8 12 11 12 12 13 12 12 12 9 7 10 9 8 6 10 8 7 6 7 7 8 1 8 6 5 7 7 12 6 4 10 13 13 13 14 12 11 10 12 9
6 7 8 10 11 9 8 8 6 7 7 3 6 4 8 9 9 7 1 7 6 2 6 11 1 2 5 3 3 3 6 4 5 3 10 7 10 13 8 7 2 0 5 5 3 9 7 5 6 9 9 10 14 11 14 14 11 13 10 10 12 13 11 8 7 9 5 6 8 8 3 3 10 9 9 6 6 9 8 13 17 16 13 14 13 13 12 14
8 8 8 9 9 7 8 6 6 5 6 8 7 8 10 7 7 2 5 1 6 4 4 4 4 6 4 3 3 3 5 6 2 5 5 7 3 7 7 4 4 7 6 4 4 4 6 6 6 6 6 8 9 11 9 10 12 12 12 11 11 15 13 3 7 3 6 4 5 6 8 7 9 8 6 5 7 10 8 5 11 13 16 14 14 13 13 13
8 8 9 7 8 6 8 6 6 7 7 7 3 8 11 8 12 6 7 5 6 5 5 7 6 6 6 7 4 3 5 6 9 10 9 8 8 9 8 9 8 7 6 7 4 5 4 5 6 6 8 7 9 9 11 13 13 12 11 12 15 13 7 7 5 3 6 7 7 3 1 2 7 7 8 7 6 9 7 6 6 10 14 17 15 15 13 14
Wind_Direction
345 346 345 344 343 342 342 341 342 342 340 338 336 334 333 332 330 325 324 321 319 318 316 313 314 314 315 317 320 321 319 310 303 284 235 240 48 99 126 120 149 167 199 214 217 206 203 196 220 189 233 240 310 283 258 269 271 86 272 285 307 354 356 0 346 351 343 348 351 2 35 350 126 135 124 110 93 102 125 145 106 79 343 334 130 151 177 202
344 344 343 341 341 341 340 340 341 340 338 334 333 330 329 330 328 325 319 319 317 314 313 313 311 312 313 315 318 320 318 299 288 274 250 207 151 134 134 148 157 168 186 213 217 209 212 195 198 196 249 229 226 256 227 167 87 294 323 300 328 336 15 334 316 5 342 355 346 15 353 358 102 155 196 139 119 135 128 152 137 122 118 178 146 167 169 196
341 341 341 341 339 340 339 339 340 339 333 331 329 329 327 325 324 318 317 315 314 313 309 312 312 310 312 316 317 314 307 300 273 255 250 153 150 143 149 155 167 169 190 207 215 226 217 180 187 201 296 285 253 276 193 255 191 206 263 308 322 19 338 356 297 356 335 329 341 348 27 344 84 106 178 140 164 148 163 168 156 154 152 157 157 173 164 237
341 340 339 339 338 337 336 337 338 333 331 329 329 327 324 323 321 321 316 314 314 310 309 307 308 311 311 313 318 314 296 287 267 213 70 149 147 150 158 158 170 183 205 225 224 228 208 215 186 166 199 274 268 250 268 167 256 105 236 267 305 337 331 323 329 353 335 336 322 332 352 34 209 146 176 129 127 187 182 179 162 164 155 160 165 179 170 177
340 337 337 335 336 335 335 336 334 330 328 328 326 325 323 319 319 316 315 312 310 308 307 305 307 309 312 311 311 299 299 277 84 76 111 112 141 150 159 167 169 192 207 222 240 217 235 228 203 192 210 257 273 302 271 269 246 285 275 286 310 293 314 346 338 331 324 308 301 300 314 11 110 181 226 164 150 197 183 176 175 161 152 163 165 177 171 180
338 336 334 335 335 337 339 335 331 328 325 326 325 321 321 318 315 314 312 308 305 304 302 304 306 309 310 311 302 286 273 96 69 104 143 154 147 155 159 172 181 199 207 227 241 203 213 234 220 220 244 253 295 282 292 289 226 270 267 274 257 302 320 335 318 325 290 308 325 322 360 300 232 62 17 320 145 166 185 175 162 164 159 161 165 167 180 185
336 335 335 336 337 338 334 331 326 325 323 322 323 318 317 315 312 310 306 304 301 300 300 301 305 308 314 302 272 257 256 276 303 120 137 157 153 149 160 178 185 205 212 225 245 232 188 235 220 241 303 296 287 280 276 288 268 261 277 308 323 306 312 308 317 320 352 346 328 335 329 279 339 261 122 101 138 132 150 164 159 162 156 161 163 168 183 179
336 337 337 337 336 333 331 328 327 324 324 320 318 316 312 310 309 305 305 301 299 294 295 300 304 310 326 312 271 224 232 261 109 123 139 131 151 149 159 185 191 204 220 227 246 213 216 220 242 248 242 271 281 289 302 294 284 283 285 289 280 289 291 302 304 316 316 308 331 327 296 36 327 48 121 131 153 136 138 146 147 156 156 160 174 169 176 183
337 337 337 335 333 331 329 328 325 324 320 319 316 311 310 305 305 303 302 301 296 295 293 298 303 308 303 285 289 287 241 85 115 135 146 148 159 162 172 179 195 204 216 235 243 230 221 224 231 217 268 251 263 273 291 291 291 260 286 300 292 283 293 293 292 289 300 316 284 304 323 354 120 73 42 154 159 127 140 145 139 154 156 167 178 173 181 178
338 336 337 335 332 331 328 326 325 324 322 318 317 313 309 305 301 300 299 297 295 292 294 296 301 309 294 269 272 260 90 80 113 137 155 153 155 161 185 187 181 203 215 226 249 225 223 223 246 216 267 278 276 276 292 287 291 315 271 262 282 294 291 280 284 295 300 288 285 290 313 339 113 257 87 213 168 119 137 152 155 158 164 172 182 175 182 188
339 336 335 336 332 328 326 324 325 324 323 318 317 314 308 304 296 295 295 292 291 291 292 295 305 303 284 264 268 255 51 288 116 136 162 152 157 170 185 196 185 199 217 221 235 227 247 220 196 247 224 298 257 270 270 283 284 280 287 285 276 279 278 277 266 262 266 283 213 280 302 304 166 194 122 180 174 136 140 160 165 168 167 174 182 196 92 258
336 336 336 330 328 327 324 326 326 324 321 320 315 317 308 301 298 292 289 289 288 287 287 292 295 285 277 269 250 265 5 37 168 138 151 165 169 177 186 199 189 208 212 226 224 228 238 263 241 174 245 58 258 301 284 273 267 281 289 290 288 284 286 274 267 281 299 261 174 25 294 263 199 194 117 164 164 141 149 160 169 172 169 173 178 175 162 247
336 335 333 329 325 328 327 327 327 325 322 319 317 310 307 299 294 290 284 283 273 268 275 285 287 261 283 264 231 222 232 302 125 137 161 172 177 182 190 205 197 213 224 253 228 217 245 260 276 296 302 302 281 276 311 289 281 286 280 292 298 302 285 260 271 252 250 233 142 14 319 123 190 215 119 130 173 151 151 163 167 174 172 171 173 178 180 203
336 334 331 328 327 328 330 329 327 325 322 317 313 310 303 297 291 285 280 275 279 282 287 281 277 266 264 266 23 93 248 241 161 170 171 173 182 183 194 204 204 211 237 256 279 234 240 259 303 288 282 266 285 288 283 292 285 270 304 287 282 294 299 332 261 255 260 150 158 102 303 127 196 154 126 131 151 158 162 165 174 168 171 171 172 171 183 175
333 332 329 327 329 329 329 328 326 323 320 312 310 309 302 293 286 282 278 267 261 266 272 274 245 261 225 244 229 95 7 276 189 191 171 176 185 177 199 196 203 210 226 248 258 271 196 266 274 250 253 243 244 247 261 273 276 276 287 269 308 286 292 324 280 229 248 138 198 181 291 90 157 142 139 139 139 169 157 163 172 167 173 173 174 175 175 169
331 331 329 328 328 329 328 326 323 323 317 316 311 307 295 284 281 272 263 269 288 295 264 250 222 228 295 273 101 141 188 196 197 181 171 189 187 185 191 184 200 212 230 243 253 297 319 267 246 266 265 248 244 251 258 264 260 31 300 295 296 318 324 316 259 232 237 229 182 199 267 112 117 148 142 149 152 159 162 165 176 168 175 175 170 176 180 163
330 330 331 328 326 328 328 326 326 325 322 315 311 291 278 267 258 263 265 267 257 230 227 262 265 194 256 73 188 205 185 203 162 177 172 200 195 176 181 189 189 205 209 239 235 265 265 232 231 245 247 259 261 266 275 265 316 255 6 290 284 282 297 284 259 204 237 235 234 189 248 107 162 147 142 154 152 148 155 175 172 177 160 177 174 182 185 168
332 332 331 328 325 326 327 328 328 326 323 318 310 301 296 301 239 263 250 242 236 226 232 243 274 263 242 258 224 213 195 146 163 167 181 187 204 169 185 188 188 212 192 229 224 246 217 233 223 260 258 227 229 242 242 255 212 293 203 246 273 258 236 245 270 220 227 229 251 175 215 114 144 137 149 161 143 154 166 171 180 167 174 178 178 182 177 174
332 332 328 327 325 324 327 329 326 325 325 319 294 291 264 261 240 238 264 182 197 176 205 186 198 194 356 171 220 167 138 132 164 162 182 167 202 163 195 204 187 201 204 227 200 220 206 242 236 244 244 246 233 230 252 262 263 242 257 265 256 283 241 199 300 266 216 275 299 141 175 144 126 151 139 143 153 168 160 153 182 170 184 180 177 171 180 178
332 329 327 324 325 323 326 325 322 320 329 319 298 209 218 212 183 190 207 220 238 263 315 161 206 121 140 120 143 100 106 158 166 200 159 179 195 168 196 212 179 218 224 219 198 204 217 230 233 234 238 246 246 232 249 270 278 264 250 268 282 286 343 318 252 231 246 298 297 7 343 48 122 134 139 148 152 151 172 163 179 162 187 187 183 177 176 183
328 329 323 324 321 322 322 322 314 314 322 299 292 276 277 354 310 104 170 206 225 243 274 198 209 325 312 110 92 148 160 175 192 180 182 160 208 167 185 207 193 211 222 230 239 173 219 246 246 247 251 240 241 252 244 251 258 290 295 282 277 286 325 254 270 200 276 340 315 153 68 95 127 130 135 147 162 158 175 170 177 163 182 186 188 176 178 177
330 326 326 322 321 321 321 317 317 314 303 272 272 261 273 3 356 335 301 237 203 234 233 258 38 211 331 89 162 181 179 167 190 169 170 187 176 203 154 217 198 219 205 227 242 214 207 239 242 251 259 264 265 269 265 263 275 264 258 258 265 321 297 278 273 238 248 229 271 252 71 133 131 130 147 164 174 167 173 175 172 176 177 180 185 177 174 174
329 327 325 323 320 320 323 313 309 314 301 234 231 246 254 345 318 340 306 288 270 196 217 219 194 220 181 351 196 182 189 185 172 178 167 205 168 223 160 213 210 228 217 211 232 229 234 223 231 241 252 263 259 238 250 255 250 255 260 257 263 256 249 283 275 293 305 297 333 30 116 127 111 118 143 167 153 165 167 169 181 176 178 183 181 172 172 174
326 326 325 323 323 322 317 322 305 279 231 229 246 256 279 304 309 330 304 265 243 171 210 203 209 218 185 209 171 219 212 171 193 177 159 206 200 204 225 200 227 222 232 207 225 251 245 251 8 240 223 238 251 223 211 256 256 246 250 262 279 254 286 287 309 305 294 228 168 150 12 79 68 138 154 149 124 141 153 164 176 174 176 185 185 173 175 177
325 325 325 324 322 322 323 317 282 222 211 215 243 249 258 269 287 316 315 273 234 174 198 188 226 206 184 354 143 214 217 182 209 170 168 205 206 186 232 202 243 221 231 220 214 235 256 273 273 280 287 271 287 315 295 258 261 262 272 352 315 281 283 296 300 300 304 306 96 309 279 151 222 174 173 146 136 148 159 170 181 175 173 187 179 175 176 180
322 324 325 324 323 324 313 297 213 219 203 227 247 220 218 274 0 351 292 272 171 141 162 203 172 181 145 179 154 215 220 230 184 173 172 205 228 225 185 248 205 231 222 246 235 223 251 243 229 200 253 269 270 273 271 259 269 262 307 338 280 292 298 293 287 298 300 310 185 229 336 99 276 207 163 177 185 162 174 186 182 182 180 188 182 175 181 184
322 322 324 323 321 331 307 336 350 308 235 219 220 58 46 322 55 291 264 233 196 152 176 109 180 106 247 149 183 196 199 194 169 161 176 190 228 219 257 227 179 254 284 260 211 230 234 261 277 265 222 262 255 242 239 265 275 287 228 231 273 288 290 293 299 290 293 286 347 10 87 105 156 164 165 183 194 177 179 191 190 186 187 182 172 179 191 186
321 321 321 318 311 302 271 320 314 278 325 55 26 1 14 10 306 268 265 252 117 177 153 157 314 127 224 156 191 200 333 118 176 157 188 173 230 189 238 254 242 218 223 280 264 216 223 225 248 275 234 232 247 262 284 250 256 263 273 283 259 281 306 293 284 283 280 304 309 256 40 354 80 101 166 198 204 195 192 186 192 191 191 183 177 190 192 185
318 318 319 312 306 284 258 249 296 275 343 349 30 311 256 161 261 286 273 314 125 172 78 141 158 180 196 162 200 219 184 164 245 145 178 180 209 243 209 237 274 289 239 203 257 258 174 257 225 223 257 264 241 243 249 257 256 245 265 274 293 288 275 272 268 272 279 288 289 311 119 276 143 200 181 199 215 201 195 189 186 191 192 187 181 190 189 180
312 314 314 312 309 228 218 226 244 250 297 308 338 309 286 262 252 239 231 229 165 156 198 96 190 175 181 170 193 209 202 176 311 140 175 195 187 231 266 295 287 251 267 245 250 259 276 313 338 322 230 237 257 260 251 246 246 279 291 288 275 268 270 273 276 288 292 267 302 276 224 205 216 191 177 187 210 208 196 191 187 182 187 186 186 184 180 180
310 306 306 308 283 319 268 229 234 238 250 277 285 278 286 246 252 268 272 93 181 105 151 155 171 162 183 179 180 194 231 180 149 163 171 195 190 212 240 231 232 277 263 256 244 252 249 246 236 231 269 293 305 289 298 293 297 292 276 281 291 282 276 268 321 341 307 294 312 301 308 258 345 112 175 208 217 217 195 186 180 182 185 182 182 187 182 179
307 303 292 274 265 307 256 339 4 324 214 246 271 270 243 249 214 244 108 195 230 160 190 165 159 179 178 191 193 175 213 189 154 193 189 186 196 194 202 240 172 234 235 224 234 232 253 239 219 232 204 243 250 262 259 258 237 232 244 255 273 304 327 326 307 294 277 270 267 286 314 30 58 23 350 214 244 186 181 182 183 181 177 179 175 176 184 181
307 303 294 267 245 231 246 263 286 318 287 255 273 257 243 270 268 213 165 178 118 163 145 170 154 180 181 192 191 174 212 212 156 206 206 181 226 191 205 224 209 216 249 192 233 222 222 231 233 232 245 194 234 247 238 240 232 243 251 268 280 288 319 284 307 285 267 279 283 285 9 75 75 106 173 311 35 100 312 169 180 177 176 177 170 170 186 180
304 305 302 235 198 222 248 261 269 276 248 251 257 249 248 251 268 360 89 73 113 168 133 176 152 180 185 205 162 188 179 210 155 196 202 189 212 212 196 211 241 224 239 290 267 210 235 205 211 227 216 195 215 230 260 279 261 251 258 258 259 278 262 305 304 283 284 292 286 253 56 169 205 80 161 55 58 84 120 171 167 170 171 171 167 168 178 177
306 296 249 241 221 236 235 245 262 251 262 250 245 257 267 257 244 35 94 159 123 136 157 133 168 179 180 238 160 175 240 150 197 200 197 221 195 236 199 200 208 243 255 253 191 310 285 284 282 195 236 188 216 203 238 254 264 280 291 283 257 255 330 279 311 301 292 310 300 14 37 21 73 4 48 94 117 120 111 125 156 158 159 163 168 160 174 171
304 250 179 214 217 222 206 218 228 238 250 250 259 252 254 307 19 335 37 37 133 160 122 172 152 202 147 217 124 214 151 267 176 247 192 223 216 209 230 212 197 200 235 241 73 267 261 270 269 359 296 247 211 210 208 233 263 311 268 251 278 309 262 291 283 269 281 279 323 115 13 68 118 23 81 76 117 98 104 133 151 158 155 160 165 154 156 165
306 291 202 220 221 204 178 193 199 219 234 261 257 255 282 217 10 313 157 317 5 121 167 189 150 225 154 155 198 224 152 208 184 220 227 192 241 230 198 231 223 183 213 258 222 220 284 278 282 251 240 246 359 248 260 196 234 257 250 318 320 253 290 282 292 314 296 312 358 329 46 348 332 87 116 177 124 122 125 146 146 151 156 154 160 156 160 177
307 281 273 259 185 162 165 183 198 209 242 250 258 263 283 294 88 312 58 186 255 154 181 223 129 252 220 152 179 211 138 236 132 210 224 176 264 157 259 246 184 224 175 189 267 187 226 261 254 229 234 217 178 235 238 252 214 230 252 249 275 320 267 9 317 292 313 305 309 40 9 59 51 152 148 57 108 128 129 137 148 157 160 159 169 166 171 174
266 281 270 203 139 160 163 173 200 219 235 250 254 269 234 292 6 15 271 322 261 238 211 202 122 176 264 222 147 190 154 209 154 213 195 159 248 149 246 242 201 181 153 195 204 258 205 268 253 273 234 221 206 176 242 208 217 252 280 276 271 260 274 273 152 285 284 292 282 145 340 7 350 43 136 111 116 163 144 153 164 164 169 167 169 171 172 182
246 234 219 127 143 146 154 183 204 222 242 249 266 296 347 301 71 329 194 241 164 276 321 289 60 333 192 292 145 194 161 231 191 172 259 150 214 143 224 166 264 153 216 207 236 194 255 163 282 278 199 242 204 176 240 240 226 201 213 250 252 254 288 294 257 249 282 307 349 353 7 7 332 5 45 130 126 122 147 162 163 163 168 172 171 169 171 182
274 272 116 154 142 149 165 185 222 223 237 252 267 257 158 348 251 133 352 101 308 58 306 316 180 190 144 266 206 192 147 256 248 219 218 155 247 191 168 181 225 202 171 216 231 194 235 197 245 256 204 225 309 166 224 231 246 252 237 227 240 286 260 257 302 341 328 312 330 308 307 101 261 40 30 38 73 138 149 151 168 168 170 175 173 175 173 176
277 252 147 157 147 169 181 220 229 229 244 250 285 2 61 347 272 74 187 133 303 262 132 308 335 306 152 307 346 128 185 176 259 270 118 259 153 296 88 44 173 215 161 223 217 193 241 235 232 250 263 269 238 245 204 228 216 246 235 241 225 236 244 214 219 254 288 326 313 309 295 20 359 56 65 67 95 71 99 153 157 170 168 174 172 164 166 169
222 260 128 169 162 182 228 257 264 257 257 300 29 244 154 190 313 40 257 171 217 344 153 267 20 348 20 326 310 57 222 195 189 234 143 207 124 87 97 197 308 351 47 223 179 230 167 251 251 264 287 279 289 298 326 295 256 204 220 263 292 265 275 311 306 291 291 309 281 328 301 65 343 79 57 51 57 99 90 140 154 161 171 168 159 128 162 153
306 301 157 154 183 194 241 254 252 252 255 180 282 340 138 325 292 172 279 130 282 169 346 298 173 304 30 311 124 307 129 270 138 281 57 80 69 60 133 195 159 196 218 131 238 80 231 188 281 292 246 263 279 292 275 270 304 291 282 212 227 261 266 247 258 276 293 299 309 321 316 49 315 70 98 73 54 78 99 120 162 157 167 164 148 141 188 151
299 282 205 158 197 201 235 250 288 295 311 235 194 234 176 221 192 331 332 8 107 329 199 15 359 285 34 280 47 286 117 8 300 228 356 250 92 67 77 303 148 257 100 40 319 122 235 196 205 236 237 242 239 225 221 216 219 227 239 271 243 233 236 237 251 291 278 39 344 288 300 30 348 97 91 76 93 94 87 115 101 144 142 120 115 112 78 89
256 283 155 172 182 201 247 268 278 293 299 301 267 262 269 216 155 204 256 231 298 7 237 323 145 280 126 261 340 335 274 158 322 74 217 69 44 110 72 270 315 269 60 11 343 300 242 222 212 227 279 283 314 337 309 298 196 226 202 227 241 230 254 296 300 301 281 8 305 49 337 330 317 338 87 71 81 88 126 122 120 134 135 131 130 135 148 129
318 280 260 201 169 218 237 220 246 243 266 1 289 268 188 249 21 170 180 265 149 295 331 282 24 234 74 292 143 283 359 230 349 21 322 323 57 68 145 267 167 240 18 323 282 268 282 278 258 237 225 260 274 266 260 283 286 215 227 218 248 280 202 204 206 233 68 327 277 344 1 331 332 313 59 89 92 119 122 124 131 133 138 143 142 137 136 122
257 294 318 24 301 199 208 229 243 245 264 262 284 336 299 279 122 242 136 253 320 177 276 130 272 344 318 301 19 264 172 302 138 326 126 310 148 154 188 178 240 110 159 260 224 235 258 264 250 242 241 234 236 256 274 269 250 284 291 275 267 212 230 310 290 249 221 255 304 139 331 285 297 15 40 95 95 84 136 136 142 144 144 144 143 145 160 168
295 326 319 353 270 289 306 357 332 300 264 259 256 206 256 268 247 232 54 314 214 233 179 273 131 312 300 357 270 289 355 263 83 350 340 326 15 305 232 158 306 200 210 238 185 194 232 250 281 290 298 273 233 221 241 261 279 232 264 270 227 266 271 251 230 302 298 262 284 252 218 271 5 49 36 82 96 90 120 140 135 148 152 147 157 166 172 180
345 348 334 331 326 302 300 293 236 253 257 229 259 277 278 239 257 326 179 237 272 251 50 275 315 311 305 354 330 298 36 53 117 115 287 321 6 340 336 336 26 153 308 329 316 151 233 217 241 274 262 279 293 245 210 209 222 280 250 236 282 278 253 238 302 288 276 270 262 281 356 312 47 12 34 17 117 102 123 140 150 151 158 157 167 190 193 186
329 315 317 310 308 320 307 265 268 257 260 248 239 250 259 273 304 11 298 9 278 326 264 311 354 305 283 352 344 41 43 6 333 282 311 297 283 216 285 34 5 302 317 333 287 154 184 272 278 273 275 267 240 263 253 254 248 229 255 254 229 251 260 221 244 239 324 338 332 300 18 3 35 23 349 50 74 83 114 116 143 159 161 176 179 189 199 210
335 329 322 305 292 297 283 296 280 284 267 247 233 245 221 229 239 102 273 218 274 313 337 311 353 318 291 251 206 28 17 336 322 333 318 310 284 294 278 282 283 305 325 295 311 262 203 260 260 252 269 277 285 262 253 238 227 231 234 253 245 239 251 270 274 34 249 299 312 323 120 353 43 23 12 10 36 129 129 149 170 178 172 172 189 195 200 206